IRNSS-1G

Last updated on Tue Oct 15 2024 00:02:40 GMT+0000 (Coordinated Universal Time)

1 41469U 16027A 24288.50484994 -.00000333 00000+0 00000+0 0 9995 2 41469 3.7111 114.6667 0003312 21.4764 198.5873 1.00264853 31052
UTC large
Height (km)
Speed (km/s)
/
Latitude / Longitude
Inclination (degrees)
Orbital Period (minutes)
Azimuth
Elevation
Range (km)
Doppler Factor

Next 0 passes for location: London (51.5072 / 0.1276)

Sorry there are no passes over London.